TimeCST,TemperatureF,Dew PointF,Humidity,Sea Level PressureIn,VisibilityMPH,Wind Direction,Wind SpeedMPH,Gust SpeedMPH,PrecipitationIn,Events,Conditions,WindDirDegrees,DateUTC
12:00 AM,67,66,96,29.88,12,East,5.8,,,,Partly Cloudy,80,2013-10-04 06:00:00
12:00 AM,68.0,66.2,94,30.03,-9999.0,East,5.8,-,N/A,,Clear,80,2013-10-04 06:00:00
1:00 AM,68.0,66.2,94,29.99,-9999.0,ENE,4.6,-,N/A,,Clear,70,2013-10-04 07:00:00
2:00 AM,68.0,62.6,83,29.97,-9999.0,NNE,3.5,-,N/A,,Clear,30,2013-10-04 08:00:00
3:00 AM,67,66,96,29.81,12,SE,3.5,,,,Scattered Clouds,130,2013-10-04 09:00:00
3:00 AM,66.2,66.2,100,29.97,6.2,SE,3.5,-,N/A,,Scattered Clouds,130,2013-10-04 09:00:00
3:44 AM,66.2,66.2,100,29.98,0.3,West,5.8,-,N/A,Fog,Fog,260,2013-10-04 09:44:00
4:00 AM,66.2,66.2,100,29.98,0.3,West,6.9,-,N/A,Fog,Fog,270,2013-10-04 10:00:00
4:42 AM,66.2,66.2,100,30.00,1.2,West,3.5,-,N/A,,Mostly Cloudy,270,2013-10-04 10:42:00
5:00 AM,66.2,66.2,100,30.01,1.9,Calm,Calm,-,N/A,,Mostly Cloudy,0,2013-10-04 11:00:00
5:28 AM,66.2,66.2,100,30.01,5.0,North,4.6,-,N/A,Fog,Fog,10,2013-10-04 11:28:00
6:00 AM,66.2,66.2,100,30.02,5.0,East,3.5,-,N/A,Fog,Fog,80,2013-10-04 12:00:00
7:00 AM,68.0,64.4,88,30.02,5.0,NNE,4.6,-,N/A,Fog,Fog,20,2013-10-04 13:00:00
8:00 AM,69.8,64.4,83,30.03,6.2,NNE,6.9,-,N/A,Fog,Mostly Cloudy,30,2013-10-04 14:00:00
8:38 AM,71.6,66.2,83,30.04,-9999.0,SSW,3.5,-,N/A,,Clear,200,2013-10-04 14:38:00
9:00 AM,72,67,79,29.88,6,WSW,4.6,,,,Haze,250,2013-10-04 15:00:00
9:00 AM,71.6,66.2,83,30.04,-9999.0,WSW,4.6,-,N/A,,Clear,250,2013-10-04 15:00:00
10:00 AM,71.6,66.2,83,30.06,3.1,West,6.9,-,N/A,,Mostly Cloudy,260,2013-10-04 16:00:00
11:00 AM,71.6,66.2,83,30.05,6.2,West,4.6,-,N/A,,Light Drizzle,270,2013-10-04 17:00:00
12:00 PM,74,67,73,29.88,6,WSW,3.5,,,,Overcast,250,2013-10-04 18:00:00
12:00 PM,73.4,66.2,78,30.02,6.2,WSW,3.5,-,N/A,,Mostly Cloudy,250,2013-10-04 18:00:00
1:00 PM,73.4,66.2,78,30.00,6.2,West,5.8,-,N/A,,Mostly Cloudy,270,2013-10-04 19:00:00
2:00 PM,73.4,68.0,83,-9999,6.2,WSW,5.8,-,N/A,,Mostly Cloudy,250,2013-10-04 20:00:00
3:00 PM,71,66,80,29.87,6,SW,8.1,,,Rain,Light Drizzle,230,2013-10-04 21:00:00
3:00 PM,71.6,66.2,83,29.98,6.2,SW,8.1,-,N/A,,Light Drizzle,230,2013-10-04 21:00:00
4:00 PM,71.6,64.4,78,29.99,6.2,NNW,6.9,-,N/A,Rain,Light Rain,340,2013-10-04 22:00:00
4:24 PM,69.8,64.4,83,29.99,3.1,North,3.5,-,N/A,Rain,Rain,10,2013-10-04 22:24:00
5:00 PM,68.0,64.4,88,29.99,3.1,ENE,5.8,-,N/A,Rain,Rain,60,2013-10-04 23:00:00
6:00 PM,67,66,97,29.85,5,East,4.6,,,Rain,Light Rain,100,2013-10-05 00:00:00
6:00 PM,68.0,66.2,94,30.00,5.0,East,4.6,-,N/A,Fog-Rain,Light Rain,100,2013-10-05 00:00:00
7:00 PM,68.0,64.4,88,30.00,-9999.0,NE,3.5,-,N/A,,Clear,40,2013-10-05 01:00:00
8:00 PM,68.0,64.4,88,30.00,-9999.0,NE,3.5,-,N/A,,Clear,40,2013-10-05 02:00:00
9:00 PM,64,62,92,29.85,12,ENE,2.3,,,,Clear,70,2013-10-05 03:00:00
9:00 PM,66.2,66.2,100,30.03,-9999.0,East,2.3,-,N/A,,Clear,100,2013-10-05 03:00:00
10:00 PM,66.2,66.2,100,30.04,6.2,South,3.5,-,N/A,Fog,Patches of Fog,180,2013-10-05 04:00:00
11:00 PM,66.2,64.4,94,30.03,-9999.0,NE,4.6,-,N/A,,Clear,50,2013-10-05 05:00:00